Regional Weather Roundup
Issued by NWS Charleston, SC

Current Version | Previous Version | Text Only | Print | Product List | Glossary Off
Versions: 1 2 3 4 5 6 7 8 9 10 11 12 13 14 15 16 17 18 19 20 21 22 23 24 25 26 27 28 29 30 31 32 33 34 35 36 37 38 39 40 41 42 43 44 45 46 47 48 49 50

000
ASUS42 KCHS 132227
RWRCHS

REGIONAL WEATHER ROUNDUP
NATIONAL WEATHER SERVICE CHARLESTON SC
500 PM EST WED DEC 13 2017

NOTE: "FAIR" INDICATES FEW OR NO CLOUDS BELOW 12,000 FEET WITH NO
SIGNIFICANT WEATHER AND/OR OBSTRUCTIONS TO VISIBILITY.

NOT ALL STATIONS ARE QUALITY CONTROLLED. USE DATA WITH CAUTION...
ESPECIALLY DEWPOINT OBSERVATIONS.

SCZ027-030-031-034>040-042>050-132300-
...SOUTHEAST SOUTH CAROLINA...

CITY           SKY/WX    TMP DP  RH WIND       PRES   REMARKS
N CHARLESTON   CLEAR     47  23  38 SW12      29.95S
WATERFRONT PRK   N/A     49  30  47 SW7G14    29.81F
JOHNS ISLAND   FAIR      45  28  53 SW6       29.96S
PINOPOLIS        N/A     48  27  43 SW7       29.86F
MONCKS CORNER  FAIR      43  21  42 SW3       29.94S
SUMMERVILLE    FAIR      46  21  36 S5        29.95S
BEAUFORT MCAS  CLEAR     49  22  34 SW8       29.97S
BEAUFORT ARPT  FAIR      45  30  57 S6        29.97R
HILTON HEAD IS NOT AVBL
WALTERBORO     CLEAR     45  21  39 SW6       29.96S
ALLENDALE      FAIR      46  19  34 CALM      29.94S

...SOUTHERN MIDLANDS AND PEE DEE...

CITY           SKY/WX    TMP DP  RH WIND       PRES   REMARKS
GEORGETOWN     FAIR      41  23  48 S3        29.94S
KINGSTREE      FAIR      43  19  39 CALM      29.92F
ORANGEBURG     CLEAR     47  19  33 SW12      29.92F
BARNWELL         N/A     48  19  32 SW6       29.94S
AIKEN          FAIR      45  18  33 SW8       29.95R
MANNING        FAIR      45  12  26 MISG      29.92F
COLUMBIA       CLEAR     48  17  29 SW8       29.91S
SUMTER         CLEAR     47  16  29 SW12      29.88F
FLORENCE       CLEAR     45  17  32 SW7       29.89F
MYRTLE BEACH   CLEAR     45  18  34 SW6       29.94F
N MYRTLE BEACH CLEAR     46  18  32 W6        29.91F

$$

GAZ063-065-086>088-099>101-113>116-118-119-134>141-150-132300-
...SOUTHEAST GEORGIA...

CITY           SKY/WX    TMP DP  RH WIND       PRES   REMARKS
SAVANNAH ARPT  CLEAR     49  21  33 SW6       29.98S SMOKE
HUNTER AAF     CLEAR     50  23  34 SW5         N/A
FORT STEWART   CLEAR     52  22  31 SW7         N/A
STATESBORO     CLEAR     49  18  29 SW3       29.97S
SYLVANIA       CLEAR     49  25  39 SW3       29.96F
CLAXTON        FAIR      51  26  38 CALM      29.98R

...CSRA...CENTRAL AND FAR SOUTHEAST GEORGIA...

CITY           SKY/WX    TMP DP  RH WIND       PRES   REMARKS
THOMSON        CLEAR     47  18  31 W5        29.97S
AUGUSTA-BUSH   CLEAR     49  18  29 SW10      29.93S
AUGUSTA-DANIEL CLEAR     49  18  29 SW7       29.93S HAZE
SWAINSBORO     FAIR      50  23  34 W5        29.97S
VIDALIA        CLEAR     50  27  40 SW5       29.98S
EASTMAN        FAIR      51 -11   7 SW3       30.00F
HAZLEHURST     FAIR      51   5  15 SW3       29.98S
ALMA           CLEAR     53  23  31 W8        30.00R
WAYCROSS       CLEAR     52  20  28 W7        30.01S
JESUP          FAIR      52  23  32 CALM      30.00S
BAXLEY         FAIR      48  23  37 SW3       29.99S
BRUNSWICK      CLEAR     50  25  37 SW6       30.02R
SAINT SIMONS   CLEAR     53  26  35 SW9       30.01R

$$

SCZ027-028-034-036>038-045-046-048>050-GAZ119-141-132300-
...LAKE AND SUPPLEMENTAL COASTAL OBSERVATIONS...

STATION/POSITION TIME  TEMP    WIND        PRES    WAVE   SWELL
                       AIR SEA DIR/SP/G            HT/PER HT/PER/DIR
                 (UTC) (F)     (DEG/KT/KT) (MB)    (FT/S) (FT/S/D)
WINYAH BAY       2130   49     250/  4     1014.0S
LAKE MURRAY      2150   49     230/  9/ 16 1011.9F
ACE BASIN NERRS  2145   48     190/  1     1014.0F
FORT PULASKI     2200   47 54  210/  6/ 10 1015.5
SAPELO ISLAND    2200   54     240/ 11     1016.0

$$

ANZ835-935-AMZ111-154-330-350-352-354-370-450-454-472-132300-
...C-MAN AND BUOY OBSERVATIONS...

STATION/POSITION TIME  TEMP    WIND        PRES    WAVE   SWELL
                       AIR SEA DIR/SP/G            HT/PER HT/PER/DIR
                 (UTC) (F)     (DEG/KT/KT) (MB)    (FT/S) (FT/S/D)
BUOY 41004       2210      74  230/ 10/ 14 1014.2
BUOY 41008       2150   49 61  180/ 10/ 14 1015.7S   1/ 4
FOLLY BEACH CMAN 2100   47     230/ 10/ 13 1015.2F
CAPERS NEARSHORE 2208   45 56  230/ 14/ 19 1013.7F
FRIPP NEARSHORE  2208   46 57  200/ 10/ 17 1014.5R


STATION/POSITION TIME  TEMP    WIND        PRES    WAVE   SWELL
                       AIR SEA DIR/SP/G            HT/PER HT/PER/DIR
                 (UTC) (F)     (DEG/KT/KT) (MB)    (FT/S) (FT/S/D)
5E ST. MARYS GA  2200      62                N/A     2/ 5
FRYING PAN BUOY  2210   47 62  260/  8/ 12 1013.5
BUOY 41025       2210   44 74  280/ 14/ 21 1012.5
CAPE LOOKOUT NC  2100          270/  8/ 11 1013.1R
BUOY 41002       2150   57 75  290/ 12/ 16 1013.6R  12/ 9  11/310/ 9
BUOY 41010       NOT AVBL
ST AUGUSTINE FL  2100   58 63  260/  7/ 10 1017.3R


$$




USA.gov is the U.S. government's official web portal to all federal, state and local government web resources and services.